When you browse on this site, cookies collect data to enhance your experience and personalize the content and advertising you see.
Visit our Privacy Policy to learn more. By continuing to use the site, you agree to this use of cookies and data.
  • In Romania
  • List of Countries
  • For 7 days
  • Water Temperature
  • Weather Map
  • Weather Widgets
  • user-avatar
    Login

    Hourly Weather Tuzla

    Today, 20 September, Friday

    Time Temperature Precipitation Wind Pressure Humidity
    00:00 +8°C° 0 mm 1 mps 727 mmHg 65%
    01:00 +7°C° 0 mm 1 mps 727 mmHg 68%
    02:00 +6°C° 0 mm 1 mps 727 mmHg 71%
    03:00 +5°C° 0 mm 0 mps 727 mmHg 73%
    04:00 +5°C° 0 mm 0 mps 727 mmHg 75%
    05:00 +6°C° 0 mm 0 mps 727 mmHg 71%
    06:00 +7°C° 0 mm 0 mps 727 mmHg 66%
    07:00 +8°C° 0 mm 0 mps 728 mmHg 62%
    08:00 +11°C° 0 mm 1 mps 728 mmHg 54%
    09:00 +13°C° 0 mm 1 mps 728 mmHg 46%
    10:00 +15°C° 0 mm 2 mps 728 mmHg 39%
    11:00 +16°C° 0 mm 2 mps 728 mmHg 36%
    12:00 +17°C° 0 mm 2 mps 728 mmHg 34%
    13:00 +17°C° 0 mm 3 mps 727 mmHg 32%
    14:00 +17°C° 0 mm 3 mps 727 mmHg 33%
    15:00 +17°C° 0 mm 3 mps 727 mmHg 34%
    16:00 +17°C° 0 mm 2 mps 727 mmHg 34%
    17:00 +14°C° 0 mm 2 mps 727 mmHg 41%
    18:00 +12°C° 0 mm 1 mps 727 mmHg 47%
    19:00 +8°C° 0 mm 0 mps 727 mmHg 54%
    20:00 +9°C° 0 mm 1 mps 727 mmHg 55%
    21:00 +8°C° 0 mm 1 mps 727 mmHg 56%
    22:00 +8°C° 0 mm 1 mps 727 mmHg 58%
    23:00 +8°C° 0 mm 1 mps 728 mmHg 59%

    Tomorrow, 21 September, Saturday

    Time Temperature Precipitation Wind Pressure Humidity
    00:00 +7°C° 0 mm 1 mps 728 mmHg 60%
    01:00 +7°C° 0 mm 1 mps 728 mmHg 61%
    02:00 +7°C° 0 mm 1 mps 728 mmHg 62%
    03:00 +7°C° 0 mm 1 mps 728 mmHg 63%
    04:00 +6°C° 0 mm 1 mps 727 mmHg 64%
    05:00 +7°C° 0 mm 1 mps 727 mmHg 61%
    06:00 +9°C° 0 mm 1 mps 727 mmHg 58%
    07:00 +10°C° 0 mm 1 mps 727 mmHg 55%
    08:00 +13°C° 0 mm 1 mps 728 mmHg 47%
    09:00 +15°C° 0 mm 1 mps 728 mmHg 39%
    10:00 +18°C° 0 mm 2 mps 728 mmHg 32%
    11:00 +21°C° 0 mm 1 mps 728 mmHg 30%
    12:00 +22°C° 0 mm 1 mps 727 mmHg 28%
    13:00 +23°C° 0 mm 1 mps 727 mmHg 26%
    14:00 +23°C° 0 mm 1 mps 727 mmHg 28%
    15:00 +22°C° 0 mm 1 mps 726 mmHg 29%
    16:00 +22°C° 0 mm 1 mps 726 mmHg 31%
    17:00 +19°C° 0 mm 1 mps 726 mmHg 36%
    18:00 +15°C° 0 mm 1 mps 726 mmHg 42%
    19:00 +12°C° 0 mm 1 mps 725 mmHg 48%
    20:00 +12°C° 0 mm 1 mps 725 mmHg 50%
    21:00 +11°C° 0 mm 1 mps 725 mmHg 52%
    22:00 +11°C° 0 mm 1 mps 725 mmHg 55%
    23:00 +11°C° 0 mm 1 mps 725 mmHg 56%

    Day after tomorrow, 22 September, Sunday

    Time Temperature Precipitation Wind Pressure Humidity
    00:00 +10°C° 0 mm 1 mps 725 mmHg 58%
    01:00 +10°C° 0 mm 1 mps 725 mmHg 60%
    02:00 +10°C° 0 mm 1 mps 725 mmHg 62%
    03:00 +10°C° 0 mm 1 mps 725 mmHg 63%
    04:00 +10°C° 0 mm 1 mps 724 mmHg 65%
    05:00 +11°C° 0 mm 1 mps 724 mmHg 62%
    06:00 +12°C° 0 mm 1 mps 724 mmHg 59%
    07:00 +13°C° 0 mm 1 mps 724 mmHg 55%
    08:00 +16°C° 0 mm 1 mps 724 mmHg 48%
    09:00 +21°C° 0 mm 1 mps 725 mmHg 40%
    10:00 +24°C° 0 mm 1 mps 725 mmHg 32%
    11:00 +26°C° 0 mm 1 mps 725 mmHg 30%
    12:00 +27°C° 0 mm 1 mps 724 mmHg 28%
    13:00 +29°C° 0 mm 1 mps 724 mmHg 26%
    14:00 +28°C° 0 mm 1 mps 723 mmHg 30%
    15:00 +27°C° 0 mm 1 mps 723 mmHg 33%
    16:00 +27°C° 0 mm 1 mps 722 mmHg 36%
    17:00 +24°C° 0 mm 1 mps 722 mmHg 41%
    18:00 +21°C° 0 mm 1 mps 722 mmHg 47%
    19:00 +19°C° 0 mm 1 mps 722 mmHg 52%
    20:00 +18°C° 0 mm 1 mps 722 mmHg 54%
    21:00 +17°C° 0 mm 2 mps 722 mmHg 56%
    22:00 +16°C° 0 mm 2 mps 722 mmHg 57%
    23:00 +16°C° 0 mm 2 mps 721 mmHg 57%

    23 September, Monday

    Time Temperature Precipitation Wind Pressure Humidity
    00:00 +16°C° 0 mm 2 mps 721 mmHg 57%
    01:00 +15°C° 0 mm 2 mps 721 mmHg 57%
    02:00 +16°C° 0 mm 2 mps 721 mmHg 54%
    03:00 +16°C° 0 mm 2 mps 720 mmHg 51%
    04:00 +17°C° 0 mm 2 mps 720 mmHg 49%
    05:00 +16°C° 0.1 mm 2 mps 720 mmHg 54%
    06:00 +16°C° 0.1 mm 2 mps 720 mmHg 59%
    07:00 +15°C° 0.1 mm 2 mps 719 mmHg 65%
    08:00 +17°C° 0 mm 2 mps 720 mmHg 62%
    09:00 +18°C° 0 mm 2 mps 720 mmHg 60%
    10:00 +20°C° 0 mm 3 mps 720 mmHg 58%
    11:00 +21°C° 0 mm 3 mps 720 mmHg 57%
    12:00 +22°C° 0 mm 3 mps 719 mmHg 56%
    13:00 +25°C° 0 mm 3 mps 719 mmHg 55%
    14:00 +25°C° 0 mm 3 mps 718 mmHg 56%
    15:00 +25°C° 0 mm 4 mps 718 mmHg 57%
    16:00 +25°C° 0 mm 4 mps 717 mmHg 58%
    17:00 +22°C° 0.1 mm 3 mps 717 mmHg 67%
    18:00 +20°C° 0.1 mm 3 mps 717 mmHg 76%
    19:00 +18°C° 0.1 mm 2 mps 716 mmHg 85%
    20:00 +18°C° 0.9 mm 2 mps 716 mmHg 88%
    21:00 +18°C° 0.9 mm 1 mps 716 mmHg 91%
    22:00 +18°C° 0.9 mm 1 mps 716 mmHg 94%
    23:00 +18°C° 2.1 mm 1 mps 716 mmHg 95%

    24 September, Tuesday

    Time Temperature Precipitation Wind Pressure Humidity
    00:00 +18°C° 2.1 mm 1 mps 716 mmHg 96%
    01:00 +16°C° 2.1 mm 1 mps 716 mmHg 97%
    02:00 +16°C° 4.5 mm 2 mps 716 mmHg 97%
    03:00 +15°C° 4.5 mm 2 mps 715 mmHg 96%
    04:00 +14°C° 4.5 mm 3 mps 715 mmHg 96%
    05:00 +14°C° 0.4 mm 3 mps 716 mmHg 96%
    06:00 +14°C° 0.4 mm 2 mps 716 mmHg 95%
    07:00 +14°C° 0.4 mm 2 mps 716 mmHg 95%
    08:00 +14°C° 0.5 mm 2 mps 717 mmHg 95%
    09:00 +14°C° 0.5 mm 2 mps 717 mmHg 95%
    10:00 +14°C° 0.5 mm 2 mps 718 mmHg 94%
    11:00 +14°C° 1.1 mm 2 mps 718 mmHg 95%
    12:00 +14°C° 1.1 mm 2 mps 718 mmHg 95%
    13:00 +14°C° 1.1 mm 2 mps 718 mmHg 96%
    14:00 +14°C° 0.7 mm 2 mps 718 mmHg 96%
    15:00 +14°C° 0.7 mm 2 mps 718 mmHg 96%
    16:00 +14°C° 0.7 mm 1 mps 718 mmHg 96%
    17:00 +14°C° 0.4 mm 1 mps 718 mmHg 96%
    18:00 +14°C° 0.4 mm 1 mps 719 mmHg 96%
    19:00 +14°C° 0.4 mm 1 mps 719 mmHg 97%
    20:00 +14°C° 0.1 mm 1 mps 719 mmHg 96%
    21:00 +14°C° 0.1 mm 1 mps 720 mmHg 96%
    22:00 +14°C° 0.1 mm 1 mps 720 mmHg 95%
    23:00 +14°C° 0 mm 1 mps 720 mmHg 95%

    25 September, Wednesday

    Time Temperature Precipitation Wind Pressure Humidity
    00:00 +13°C° 0 mm 1 mps 720 mmHg 95%
    01:00 +13°C° 0 mm 1 mps 720 mmHg 95%
    02:00 +13°C° 0 mm 1 mps 720 mmHg 95%
    03:00 +13°C° 0 mm 1 mps 720 mmHg 95%
    04:00 +13°C° 0 mm 1 mps 720 mmHg 94%
    05:00 +13°C° 0 mm 1 mps 720 mmHg 94%
    06:00 +14°C° 0 mm 1 mps 720 mmHg 93%
    07:00 +14°C° 0 mm 1 mps 720 mmHg 92%
    08:00 +16°C° 0 mm 1 mps 720 mmHg 83%
    09:00 +18°C° 0 mm 0 mps 720 mmHg 73%
    10:00 +20°C° 0 mm 0 mps 721 mmHg 64%
    11:00 +21°C° 0 mm 0 mps 720 mmHg 59%
    12:00 +22°C° 0 mm 0 mps 720 mmHg 54%
    13:00 +25°C° 0 mm 1 mps 720 mmHg 49%
    14:00 +24°C° 0 mm 1 mps 720 mmHg 51%
    15:00 +24°C° 0 mm 1 mps 719 mmHg 53%
    16:00 +23°C° 0 mm 1 mps 719 mmHg 55%
    17:00 +21°C° 0 mm 1 mps 719 mmHg 63%
    18:00 +19°C° 0 mm 1 mps 719 mmHg 70%
    19:00 +16°C° 0 mm 1 mps 719 mmHg 77%
    20:00 +16°C° 0 mm 1 mps 719 mmHg 78%
    21:00 +15°C° 0 mm 1 mps 719 mmHg 79%
    22:00 +15°C° 0 mm 1 mps 719 mmHg 80%
    23:00 +15°C° 0 mm 1 mps 719 mmHg 80%
    Show more